Powrót do katalogu

STARLINK-30825

AktywnyŁącznośćVLEO
NORAD 58384·PAYLOAD·🇺🇸 United States

Wystrzelony Nov 20, 2023 z Vandenberg Space Force Base

Loading…

Następne Przeloty (najbliższe 24 godziny)

TLE

ŚwieżeSource: CelesTrak SupGP

Epoka: Sep 15, 2026, 03:01 UTC

1 58384C 23178L   26258.12618056 -.00081047  00000+0 -23951-2 0  2582
2 58384  53.1582 196.7953 0001343  84.9147   7.2783 15.34424290    10

Śledź STARLINK-30825 w czasie rzeczywistym z AllMySat

Download on the App Store